Athens, OH

2:56 AM EDT on May 26, 2017 (GMT -0400)
Ohio University

Weather History for KUNI - March, 2013

Change the Weather History Date:

Friday, March 29, 2013

  Actual Average (KPKB) Record (KPKB)
Temperature  
Mean Temperature 38 °F -  
Max Temperature 53 °F 62 °F 83 °F (1910)
Min Temperature 22 °F 42 °F 14 °F (2015)
Degree Days  
Heating Degree Days 28    
Moisture  
Dew Point 25 °F    
Average Humidity 63    
Maximum Humidity 92    
Minimum Humidity 32    
Precipitation  
Precipitation 0.00 in - - ()
Sea Level Pressure  
Sea Level Pressure 30.26 in    
Wind  
Wind Speed 2 mph (West)    
Max Wind Speed 15 mph    
Max Gust Speed 20 mph    
Visibility 10 miles    
Events      
Averages and records for this station are not official NWS values.
T = Trace of Precipitation, MM = Missing Value Source: NWS Daily Summary

Daily Weather History Graph

Daily Weather History Graph

Search for Another Location

Airport or City:

Trip Planner

Search our weather history database for the weather conditions in past years. The results will help you decide how hot, cold, wet, or windy it might be!

Date:

Astronomy

Mar. 29, 2013 Rise Set
Actual Time 7:17 AM EDT 7:50 PM EDT
Civil Twilight 6:50 AM EDT 8:16 PM EDT
Nautical Twilight 6:19 AM EDT 8:48 PM EDT
Astronomical Twilight 5:46 AM EDT 9:21 PM EDT
Moon 10:47 PM EDT (3/29) 8:26 AM EDT (3/29)
Length of Visible Light 13h 26m
Length of Day
12h 32m
Waning Gibbous, 93% of the Moon is Illuminated
Mar 29
Waning Gibbous
Apr 3
Last Quarter
Apr 10
New
Apr 18
First Quarter
Apr 25
Full

Hourly Weather History & Observations

Time (EDT) Temp. Windchill Dew Point Humidity Pressure Visibility Wind Dir Wind Speed Gust Speed Precip Events Conditions
12:15 AM 30.0 °F - 25.2 °F 82% 30.30 in 10.0 mi Calm Calm - N/A   Clear
12:35 AM 28.9 °F - 24.6 °F 84% 30.30 in 10.0 mi Calm Calm - N/A   Clear
12:55 AM 28.4 °F - 24.8 °F 86% 30.30 in 10.0 mi Calm Calm - N/A   Clear
1:15 AM 28.0 °F 24.2 °F 24.6 °F 87% 30.30 in 10.0 mi West 3.5 mph - N/A   Clear
1:35 AM 27.3 °F - 24.1 °F 88% 30.30 in 10.0 mi Calm Calm - N/A   Clear
1:55 AM 26.8 °F 22.8 °F 23.7 °F 88% 30.30 in 10.0 mi West 3.5 mph - N/A   Clear
2:15 AM 26.8 °F - 24.3 °F 90% 30.30 in 10.0 mi Calm Calm - N/A   Clear
2:35 AM 26.6 °F - 23.9 °F 90% 30.30 in 10.0 mi Calm Calm - N/A   Clear
2:55 AM 26.1 °F - 23.4 °F 90% 30.30 in 10.0 mi Calm Calm - N/A   Clear
3:15 AM 25.7 °F - 23.4 °F 91% 30.30 in 10.0 mi Calm Calm - N/A   Clear
3:35 AM 25.3 °F - 23.0 °F 91% 30.29 in 10.0 mi Calm Calm - N/A   Clear
3:55 AM 24.8 °F - 22.6 °F 91% 30.29 in 10.0 mi Calm Calm - N/A   Clear
4:15 AM 24.4 °F - 22.1 °F 91% 30.29 in 10.0 mi Calm Calm - N/A   Clear
4:35 AM 24.3 °F - 22.1 °F 91% 30.29 in 10.0 mi Calm Calm - N/A   Clear
4:55 AM 24.8 °F - 22.6 °F 91% 30.29 in 10.0 mi Calm Calm - N/A   Clear
5:15 AM 23.4 °F - 21.2 °F 91% 30.29 in 10.0 mi Calm Calm - N/A   Clear
5:35 AM 23.5 °F - 21.4 °F 91% 30.29 in 10.0 mi Calm Calm - N/A   Clear
5:55 AM 23.9 °F - 21.9 °F 92% 30.29 in 10.0 mi Calm Calm - N/A   Clear
6:15 AM 23.7 °F - 21.6 °F 91% 30.29 in 10.0 mi Calm Calm - N/A   Clear
6:35 AM 23.0 °F - 21.0 °F 92% 30.29 in 10.0 mi Calm Calm - N/A   Clear
6:55 AM 23.4 °F - 21.0 °F 91% 30.30 in 10.0 mi Calm Calm - N/A   Clear
7:15 AM 22.8 °F - 20.7 °F 91% 30.30 in 10.0 mi Calm Calm - N/A   Clear
7:35 AM 23.0 °F - 21.0 °F 92% 30.31 in 10.0 mi Calm Calm - N/A   Clear
7:55 AM 23.5 °F - 21.4 °F 91% 30.31 in 10.0 mi Calm Calm - N/A   Clear
8:15 AM 24.8 °F - 22.5 °F 91% 30.31 in 10.0 mi Calm Calm - N/A   Clear
8:35 AM 26.6 °F - 24.1 °F 90% 30.31 in 10.0 mi Calm Calm - N/A   Clear
8:55 AM 29.1 °F - 26.1 °F 88% 30.31 in 10.0 mi Calm Calm - N/A   Clear
9:15 AM 32.2 °F - 28.2 °F 85% 30.31 in 10.0 mi Calm Calm - N/A   Clear
9:35 AM 35.8 °F - 30.0 °F 80% 30.31 in 10.0 mi Calm Calm - N/A   Clear
9:55 AM 39.2 °F - 28.4 °F 65% 30.31 in 10.0 mi Calm Calm - N/A   Clear
10:15 AM 41.0 °F - 28.8 °F 62% 30.31 in 10.0 mi Calm Calm - N/A   Clear
10:35 AM 43.7 °F - 28.6 °F 55% 30.31 in 10.0 mi Calm Calm - N/A   Clear
10:55 AM 45.0 °F 41.2 °F 27.1 °F 50% 30.31 in 10.0 mi WSW 6.9 mph - N/A   Clear
11:15 AM 46.0 °F 42.5 °F 27.3 °F 48% 30.31 in 10.0 mi West 6.9 mph - N/A   Scattered Clouds
11:35 AM 47.5 °F - 26.8 °F 45% 30.31 in 10.0 mi WSW 8.1 mph - N/A   Scattered Clouds
11:55 AM 47.3 °F - 26.6 °F 45% 30.31 in 10.0 mi West 9.2 mph - N/A   Scattered Clouds
12:15 PM 47.7 °F - 27.0 °F 45% 30.30 in 10.0 mi WNW 8.1 mph 17.3 mph N/A   Clear
12:35 PM 48.2 °F - 26.1 °F 42% 30.29 in 10.0 mi WSW 9.2 mph 16.1 mph N/A   Scattered Clouds
12:55 PM 48.7 °F - 25.7 °F 41% 30.29 in 10.0 mi WSW 10.4 mph 16.1 mph N/A   Scattered Clouds
1:15 PM 49.8 °F - 25.3 °F 39% 30.27 in 10.0 mi WSW 10.4 mph - N/A   Clear
1:35 PM 51.1 °F - 24.8 °F 36% 30.26 in 10.0 mi West 10.4 mph - N/A   Mostly Cloudy
1:55 PM 51.4 °F - 23.5 °F 34% 30.25 in 10.0 mi WNW 11.5 mph 16.1 mph N/A   Scattered Clouds
2:15 PM 52.5 °F - 23.4 °F 32% 30.24 in 10.0 mi WNW 6.9 mph - N/A   Scattered Clouds
2:35 PM 52.0 °F - 23.0 °F 32% 30.23 in 10.0 mi West 11.5 mph - N/A   Clear
2:55 PM 51.8 °F - 22.5 °F 32% 30.23 in 10.0 mi West 8.1 mph - N/A   Scattered Clouds
3:15 PM 52.2 °F - 23.5 °F 33% 30.22 in 10.0 mi West 8.1 mph - N/A   Mostly Cloudy
3:35 PM 52.9 °F - 23.9 °F 32% 30.21 in 10.0 mi West 11.5 mph 17.3 mph N/A   Overcast
3:55 PM 53.2 °F - 24.1 °F 32% 30.21 in 10.0 mi WNW 5.8 mph - N/A   Overcast
4:15 PM 53.6 °F - 25.3 °F 34% 30.20 in 10.0 mi West 9.2 mph 16.1 mph N/A   Mostly Cloudy
4:35 PM 52.3 °F - 24.3 °F 34% 30.20 in 10.0 mi West 12.7 mph - N/A   Scattered Clouds
4:55 PM 52.7 °F - 25.2 °F 34% 30.20 in 10.0 mi West 15.0 mph 19.6 mph N/A   Scattered Clouds
5:15 PM 52.7 °F - 25.0 °F 34% 30.19 in 10.0 mi West 8.1 mph - N/A   Mostly Cloudy
5:35 PM 52.7 °F - 25.0 °F 34% 30.19 in 10.0 mi West 9.2 mph - N/A   Scattered Clouds
5:55 PM 53.6 °F - 24.8 °F 33% 30.19 in 10.0 mi NW 5.8 mph - N/A   Scattered Clouds
6:15 PM 52.2 °F - 23.9 °F 33% 30.19 in 10.0 mi WNW 12.7 mph 19.6 mph N/A   Scattered Clouds
6:35 PM 52.0 °F - 24.3 °F 34% 30.19 in 10.0 mi WNW 8.1 mph - N/A   Mostly Cloudy
6:55 PM 51.4 °F - 25.0 °F 36% 30.19 in 10.0 mi NW 5.8 mph - N/A   Overcast
7:15 PM 50.9 °F - 25.9 °F 38% 30.19 in 10.0 mi NW 6.9 mph - N/A   Overcast
7:35 PM 50.5 °F - 25.7 °F 38% 30.19 in 10.0 mi NW 3.5 mph - N/A   Overcast
7:55 PM 50.0 °F - 26.8 °F 41% 30.20 in 10.0 mi WNW 4.6 mph - N/A   Overcast
8:15 PM 49.5 °F - 26.6 °F 41% 30.20 in 10.0 mi NW 3.5 mph - N/A   Overcast
8:35 PM 48.9 °F - 26.6 °F 42% 30.20 in 10.0 mi Calm Calm - N/A   Overcast
8:55 PM 48.6 °F - 26.4 °F 42% 30.21 in 10.0 mi Calm Calm - N/A   Mostly Cloudy
9:15 PM 43.9 °F - 28.2 °F 54% 30.21 in 10.0 mi Calm Calm - N/A   Scattered Clouds
9:35 PM 43.7 °F - 28.2 °F 54% 30.22 in 10.0 mi Calm Calm - N/A   Mostly Cloudy
9:55 PM 41.4 °F - 29.1 °F 62% 30.22 in 10.0 mi Calm Calm - N/A   Mostly Cloudy
10:15 PM 40.3 °F - 27.9 °F 61% 30.22 in 10.0 mi Calm Calm - N/A   Scattered Clouds
10:35 PM 37.0 °F - 28.8 °F 72% 30.22 in 10.0 mi Calm Calm - N/A   Clear
10:55 PM 37.4 °F - 27.5 °F 67% 30.22 in 10.0 mi Calm Calm - N/A   Clear
11:15 PM 36.1 °F - 28.9 °F 75% 30.22 in 10.0 mi Calm Calm - N/A   Clear
11:35 PM 34.5 °F - 29.1 °F 81% 30.22 in 10.0 mi Calm Calm - N/A   Scattered Clouds
11:55 PM 34.7 °F - 28.8 °F 79% 30.22 in 10.0 mi Calm Calm - N/A   Overcast